sat.trackr.live / text

‹ back to catalog

STARLINK-5545

NORAD 56476 · 2023-064AE

PAYLOAD ACTIVE UNKNOWN

§ Identity

Operator
Country
US
Launch date
2023-05-10
Launch site
AFWTR
Launch vehicle
Mass (kg)
RCS (m²)

Purposes: comms

External: N2YO · Heavens-Above · Gunter

§ Orbital elements

Epoch: 2026-05-25T02:30:00.842688Z

Period
96.11 min
Inclination
69.9991°
Eccentricity
0.0002783
Mean motion
14.98329351 rev/d
Perigee alt
570.1 km
Apogee alt
574.0 km
Semi-major
6,950.2 km
B*
-3.3054e-5
RAAN
291.8578°
Arg perigee
254.3964°
Mean anomaly
105.6888°
Rev number
16,718

§ Raw data

STARLINK-55451 56476U 23064AE  26145.10417642 -.00000487  00000+0 -33054-4 0  99952 56476  69.9991 291.8578 0002783 254.3964 105.6888 14.98329351167180

JSON: /api/v1/satellites/56476 · /tle

For live sub-satellite position, see the globe view (requires WebGL).

§ Visibility from observer

Set your observer location to see the next 7 days of passes ≥ 10°. The values pass through the URL so the page stays shareable.

No JS? Fill the form by hand. The geolocation button needs JavaScript.